[[{"header":{"parameterUnit":"m.s-1","parameterCategory":1,"la1":30.2991,"la2":30.254,"lo1":-89.0895,"lo2":-89.0444,"dy":0.0017,"dx":0.0017,"nx":28,"ny":28,"refTime":"2025-03-23T03:00:00:Z","depth":0,"parameterNumber":2,"parameterNumberName":"U-component_of_WINDS"},"data":[0,0,0,0,0,0,0,0,0,0,0,0,0,0,0,0,0,0,0,0,0,0,0,0,0,0,0,0,0,0,0,0,0,0,0,0,0,0,0,0,0,0,0,0,0,0,0,0,0,0,0,0,0,0,0,0,0,0,-2.1305,-2.1305,0,-2.1297,-2.1297,-2.1297,-2.1282,-2.1282,-2.1281,-2.1281,-2.1272,-2.1272,-2.1272,0,0,0,0,0,0,0,0,0,0,0,0,0,-2.1308,-2.1308,-2.1305,-2.1305,-2.1305,-2.1297,-2.1297,-2.1297,-2.1282,-2.1282,-2.1281,-2.1281,-2.1272,-2.1272,-2.1272,0,0,0,0,0,0,0,0,0,0,0,0,0,-2.1304,-2.1308,-2.1305,-2.1297,-2.1296,-2.1297,-2.1297,-2.1297,-2.1282,-2.1282,-2.1281,-2.1281,-2.1272,-2.1272,-2.1272,-2.1281,0,0,-2.1272,-2.1272,0,0,0,0,0,0,0,0,-2.1304,-2.1304,-2.1298,-2.1297,-2.1296,-2.129,-2.1295,-2.1291,-2.1282,-2.1287,-2.1281,-2.1281,-2.1278,-2.1278,-2.1277,-2.128,-2.128,-2.1272,-2.1272,-2.1272,-2.1272,0,0,0,0,0,0,0,-2.1305,-2.1304,-2.1302,-2.1298,-2.1297,-2.1293,-2.1292,-2.1294,-2.1285,-2.1287,-2.1286,-2.1285,-2.1278,-2.1277,-2.1277,-2.128,-2.1272,-2.1272,-2.1272,-2.1272,-2.129,-2.129,0,0,0,0,0,0,-2.1306,-2.1305,-2.1302,-2.1301,-2.1299,-2.1293,-2.1292,-2.1292,-2.1285,-2.1284,-2.1285,-2.1284,-2.1277,-2.1277,-2.1277,-2.1286,-2.1272,-2.1272,-2.1272,-2.1289,-2.129,-2.129,0,0,0,0,0,0,-2.1306,-2.1306,-2.1302,-2.1303,-2.1302,-2.1294,-2.1294,-2.1292,-2.1292,-2.1284,-2.1282,-2.1286,-2.1277,-2.1277,-2.128,-2.1285,-2.1272,-2.1273,-2.1289,-2.129,-2.129,-2.1305,0,0,0,0,0,0,-2.1306,-2.1306,-2.1309,-2.1303,-2.1302,-2.1306,-2.1294,-2.1293,-2.1292,-2.1291,-2.1285,-2.1283,-2.1277,-2.128,-2.128,-2.1285,-2.1273,-2.1288,-2.1289,-2.129,-2.1304,-2.1306,-2.1308,0,0,0,0,0,-2.1307,-2.1314,-2.1309,-2.1309,-2.1306,-2.1306,-2.1306,-2.1298,-2.1292,-2.1295,-2.1291,-2.1283,-2.1285,-2.128,-2.128,-2.1286,-2.1288,-2.1289,-2.129,-2.1303,-2.1305,-2.1308,0,0,0,0,0,0,-2.1321,-2.1313,-2.1308,-2.1313,-2.131,-2.1304,-2.1307,-2.1301,-2.13,-2.1299,-2.1289,-2.1288,-2.1293,-2.129,-2.1285,-2.1294,-2.1285,-2.1286,-2.1295,-2.1298,-2.13,-2.13,-2.1273,0,0,0,0,0,-2.1324,-2.1325,-2.1318,-2.1324,-2.1323,-2.1315,-2.1315,-2.131,-2.1307,-2.1305,-2.1301,-2.1298,-2.1298,-2.1298,-2.1297,-2.1304,-2.1302,-2.1307,-2.1309,-2.1311,-2.1312,-2.1315,-2.1317,-2.1294,-2.1294,-2.1294,0,0,-2.1332,-2.1328,-2.1329,-2.1326,-2.1324,-2.1325,-2.1314,-2.1316,-2.1317,-2.1305,-2.1308,-2.1305,-2.1301,-2.1306,-2.1308,-2.1304,-2.1318,-2.1312,-2.1314,-2.1313,-2.1316,-2.1318,-2.132,-2.1294,-2.1294,-2.1294,0,0,-2.1346,-2.1343,-2.1347,-2.1345,-2.1341,-2.1336,-2.1337,-2.1332,-2.1329,-2.1332,-2.1323,-2.1324,-2.1324,-2.1322,-2.1321,-2.1335,-2.1328,-2.1335,-2.1345,-2.1348,-2.135,-2.1352,-2.1356,-2.1358,-2.1336,-2.1336,-2.1336,0,-2.1356,-2.1358,-2.135,-2.1352,-2.1352,-2.1342,-2.1346,-2.1344,-2.134,-2.134,-2.1335,-2.1335,-2.1332,-2.1336,-2.134,-2.1339,-2.134,-2.1335,-2.135,-2.1352,-2.1353,-2.1357,-2.1359,-2.1337,-2.1337,-2.1337,-2.1337,0,-2.137,-2.1371,-2.1375,-2.1371,-2.1371,-2.1374,-2.1367,-2.1368,-2.1363,-2.1359,-2.1362,-2.1358,-2.1356,-2.1357,-2.1352,-2.1361,-2.1358,-2.1352,-2.1343,-2.1356,-2.136,-2.1362,-2.1338,-2.1338,-2.1338,-2.1337,0,0,-2.1392,-2.1385,-2.1386,-2.1384,-2.138,-2.1381,-2.1384,-2.1382,-2.1383,-2.1381,-2.1383,-2.1383,-2.1378,-2.1377,-2.1372,-2.1374,-2.1386,-2.1368,-2.1368,-2.1371,-2.1394,-2.1398,-2.14,-2.1382,-2.1382,-2.1382,-2.1394,0,-2.1405,-2.1409,-2.1402,-2.1408,-2.1409,-2.14,-2.1403,-2.14,-2.1397,-2.1397,-2.1393,-2.1393,-2.1386,-2.1386,-2.1388,-2.1384,-2.139,-2.1383,-2.1383,-2.1383,-2.1383,-2.1402,-2.1406,-2.1418,-2.1396,-2.1396,-2.1396,0,-2.142,-2.1419,-2.1424,-2.1419,-2.142,-2.1422,-2.142,-2.1421,-2.1418,-2.1415,-2.1414,-2.1408,-2.141,-2.1403,-2.1406,-2.1401,-2.1401,-2.1399,-2.1399,-2.1398,-2.139,-2.1401,-2.1422,-2.1423,-2.1399,-2.1399,-2.1398,0,-2.1435,-2.1435,-2.1438,-2.1437,-2.1431,-2.1433,-2.1431,-2.1428,-2.1427,-2.1426,-2.1426,-2.1425,-2.1424,-2.1424,-2.1418,-2.1413,-2.1422,-2.1414,-2.1419,-2.1419,-2.142,-2.142,-2.1441,-2.1422,-2.1422,-2.1422,-2.1422,0,-2.1449,-2.1453,-2.1444,-2.1446,-2.145,-2.1443,-2.1448,-2.1445,-2.1442,-2.1443,-2.1436,-2.1437,-2.1429,-2.143,-2.1425,-2.1429,-2.1429,-2.1426,-2.1425,-2.1426,-2.1426,-2.1425,-2.1424,-2.1422,-2.1422,-2.1422,-2.1422,0,-2.1466,-2.1461,-2.1464,-2.1458,-2.1457,-2.146,-2.1456,-2.1457,-2.1454,-2.1455,-2.1455,-2.1449,-2.145,-2.1444,-2.1443,-2.144,-2.1445,-2.1442,-2.1446,-2.1445,-2.145,-2.1449,-2.147,-2.1472,-2.1452,-2.1453,-2.1453,0,-2.1475,-2.1478,-2.1473,-2.1473,-2.1471,-2.1472,-2.1472,-2.1465,-2.1465,-2.1462,-2.1464,-2.1464,-2.1464,-2.1465,-2.146,-2.1459,-2.1456,-2.1464,-2.1456,-2.1458,-2.1456,-2.1455,-2.1455,-2.1465,-2.1465,-2.1465,-2.1466,0,-2.1492,-2.1489,-2.1489,-2.1488,-2.1488,-2.1487,-2.1485,-2.1486,-2.1479,-2.1479,-2.148,-2.1479,-2.1478,-2.1478,-2.1477,-2.1475,-2.1469,-2.1468,-2.1469,-2.147,-2.1472,-2.1471,-2.1449,-2.1467,-2.1467,-2.1467,-2.1467,-2.1467,-2.1505,-2.1507,-2.1504,-2.1504,-2.1502,-2.1501,-2.1502,-2.1498,-2.1499,-2.1497,-2.1494,-2.1495,-2.1492,-2.1489,-2.1488,-2.1488,-2.1485,-2.1486,-2.1487,-2.1487,-2.1488,-2.1473,-2.1488,-2.1488,-2.1488,-2.1488,-2.1488,0,-2.1521,-2.1519,-2.1519,-2.1517,-2.1517,-2.1512,-2.151,-2.151,-2.1511,-2.1509,-2.1509,-2.1509,-2.1509,-2.1505,-2.1504,-2.1505,-2.1503,-2.1505,-2.1505,-2.1504,-2.1491,-2.149,-2.1508,-2.1508,-2.1508,-2.1508,-2.1508,-2.1508,-2.1529,-2.1532,-2.1529,-2.1531,-2.1529,-2.153,-2.1529,-2.1528,-2.1526,-2.1527,-2.1527,-2.1524,-2.1521,-2.152,-2.152,-2.1518,-2.1518,-2.1522,-2.1519,-2.1507,-2.1505,-2.1503,-2.1502,-2.1522,-2.1522,-2.1532,-2.1532,-2.1532]},{"header":{"parameterUnit":"m.s-1","parameterCategory":1,"la1":30.2991,"la2":30.254,"lo1":-89.0895,"lo2":-89.0444,"dy":0.0017,"dx":0.0017,"nx":28,"ny":28,"refTime":"2025-03-23T03:00:00:Z","depth":0,"parameterNumber":3,"parameterNumberName":"V-component_of_WINDS"},"data":[0,0,0,0,0,0,0,0,0,0,0,0,0,0,0,0,0,0,0,0,0,0,0,0,0,0,0,0,0,0,0,0,0,0,0,0,0,0,0,0,0,0,0,0,0,0,0,0,0,0,0,0,0,0,0,0,0,0,5.2653,5.2653,0,5.2659,5.2659,5.2659,5.2613,5.2612,5.2611,5.2609,5.2614,5.2616,5.2617,0,0,0,0,0,0,0,0,0,0,0,0,0,5.2604,5.2605,5.2653,5.2653,5.2653,5.2659,5.2659,5.2659,5.2613,5.2612,5.261,5.2609,5.2614,5.2615,5.2617,0,0,0,0,0,0,0,0,0,0,0,0,0,5.2619,5.2605,5.2653,5.2631,5.2629,5.2659,5.2659,5.2659,5.2614,5.2612,5.261,5.2608,5.2613,5.2615,5.2617,5.2667,0,0,5.2623,5.2624,0,0,0,0,0,0,0,0,5.2618,5.2621,5.2634,5.2633,5.2631,5.2633,5.2643,5.2662,5.2614,5.262,5.2609,5.2607,5.2622,5.2623,5.2628,5.2668,5.2668,5.2623,5.2625,5.2625,5.2626,0,0,0,0,0,0,0,5.2617,5.262,5.2655,5.2635,5.2633,5.2622,5.2622,5.2646,5.2631,5.2619,5.2616,5.2617,5.2621,5.2627,5.2628,5.2668,5.2623,5.2625,5.2626,5.2627,5.2751,5.2753,0,0,0,0,0,0,5.2619,5.262,5.2655,5.2655,5.262,5.2624,5.2624,5.2634,5.2631,5.2629,5.2619,5.2615,5.2624,5.2626,5.2628,5.2688,5.2625,5.2627,5.2628,5.2749,5.2752,5.2754,0,0,0,0,0,0,5.2618,5.2623,5.2655,5.2637,5.264,5.2627,5.2639,5.2636,5.2641,5.2631,5.2628,5.2627,5.2623,5.2625,5.2659,5.2688,5.2628,5.263,5.2747,5.275,5.2753,5.2809,0,0,0,0,0,0,5.2617,5.2623,5.2641,5.2638,5.2641,5.2685,5.2641,5.2637,5.2645,5.264,5.2638,5.2636,5.2621,5.2656,5.2661,5.269,5.2631,5.2744,5.2748,5.2752,5.2804,5.2813,5.2821,0,0,0,0,0,5.2615,5.2656,5.2642,5.2647,5.2664,5.2687,5.2689,5.2671,5.2647,5.2666,5.266,5.2636,5.2684,5.266,5.2665,5.2695,5.2742,5.2747,5.2752,5.28,5.2811,5.2821,0,0,0,0,0,0,5.2662,5.2655,5.264,5.268,5.2685,5.2679,5.2702,5.2684,5.2694,5.2689,5.2667,5.2667,5.2705,5.2703,5.2676,5.2744,5.2709,5.2715,5.2744,5.2755,5.2763,5.2763,5.2633,0,0,0,0,0,5.2677,5.2696,5.2689,5.2725,5.2728,5.2715,5.2724,5.2711,5.2714,5.2716,5.2712,5.2716,5.2732,5.2743,5.2757,5.2804,5.2804,5.2827,5.2835,5.2843,5.2848,5.2875,5.2886,5.277,5.277,5.277,0,0,5.2708,5.2707,5.272,5.2735,5.2736,5.2758,5.2717,5.274,5.2756,5.2719,5.2751,5.2748,5.2752,5.2793,5.281,5.2792,5.288,5.2849,5.2854,5.2856,5.2881,5.2892,5.2902,5.2773,5.2772,5.2772,0,0,5.2776,5.2776,5.2807,5.2811,5.2815,5.2806,5.2814,5.2812,5.2809,5.2841,5.2815,5.2833,5.2861,5.2865,5.2871,5.2944,5.2923,5.2949,5.2994,5.302,5.3029,5.3037,5.3065,5.3075,5.2955,5.2955,5.2955,0,5.2814,5.2844,5.2826,5.2852,5.286,5.2829,5.2862,5.2866,5.2874,5.288,5.286,5.2896,5.2896,5.2939,5.2957,5.2962,5.2971,5.2949,5.3029,5.3037,5.3044,5.307,5.3081,5.2958,5.2958,5.2957,5.2957,0,5.2892,5.2914,5.2939,5.2949,5.296,5.2989,5.2976,5.2989,5.2975,5.2969,5.3003,5.3002,5.3017,5.3026,5.3012,5.3067,5.3056,5.3033,5.2997,5.3059,5.3083,5.3093,5.2963,5.2961,5.296,5.296,0,0,5.2987,5.2989,5.2999,5.3004,5.3008,5.3024,5.3053,5.3068,5.3081,5.3088,5.3112,5.3138,5.3117,5.3124,5.3111,5.3134,5.3194,5.3108,5.3108,5.3125,5.3257,5.3275,5.3287,5.318,5.3182,5.3183,5.3257,0,5.3054,5.3103,5.3089,5.3138,5.316,5.3132,5.3157,5.3163,5.3158,5.3176,5.3171,5.319,5.3161,5.3165,5.3186,5.3182,5.322,5.3176,5.3203,5.3204,5.3204,5.3299,5.3317,5.3387,5.3266,5.3268,5.3269,0,5.3138,5.3151,5.3204,5.3206,5.3214,5.3237,5.3252,5.3268,5.3274,5.327,5.3279,5.3262,5.3291,5.3255,5.3295,5.3266,5.3276,5.3276,5.3278,5.328,5.3241,5.3305,5.3409,5.342,5.3283,5.3282,5.3281,0,5.3205,5.3235,5.3271,5.3276,5.3279,5.3297,5.3299,5.3303,5.3314,5.3327,5.3334,5.3349,5.3358,5.3371,5.3358,5.3333,5.3402,5.3364,5.3399,5.34,5.3415,5.3414,5.3523,5.342,5.342,5.342,5.342,0,5.3282,5.3315,5.3301,5.3323,5.336,5.3344,5.3381,5.338,5.3385,5.3407,5.3384,5.3405,5.3387,5.3407,5.3397,5.3434,5.3437,5.3435,5.3432,5.3438,5.3438,5.3444,5.344,5.3423,5.3422,5.3422,5.3421,0,5.3362,5.3354,5.3392,5.3393,5.3394,5.3422,5.3423,5.3444,5.3438,5.3467,5.3472,5.3464,5.3487,5.3476,5.3498,5.3492,5.354,5.353,5.3538,5.3536,5.3572,5.357,5.3689,5.3705,5.3591,5.3592,5.3593,0,5.3413,5.3438,5.3443,5.3457,5.3461,5.3483,5.3495,5.348,5.3493,5.3504,5.3524,5.3545,5.356,5.3598,5.3594,5.3612,5.3603,5.3644,5.3605,5.3611,5.3605,5.3605,5.3608,5.3652,5.3653,5.3654,5.3655,0,5.3503,5.3498,5.3517,5.3535,5.355,5.3563,5.3574,5.3586,5.3572,5.3589,5.3612,5.3624,5.3649,5.367,5.3687,5.3689,5.3671,5.3667,5.3677,5.3683,5.3687,5.3687,5.356,5.3664,5.3664,5.3663,5.3662,5.3662,5.3571,5.3593,5.3601,5.3623,5.363,5.3642,5.3662,5.3661,5.368,5.37,5.369,5.3718,5.3725,5.3745,5.3751,5.3772,5.3756,5.3769,5.3773,5.3777,5.3782,5.3683,5.3775,5.3775,5.3774,5.3774,5.3774,0,5.3661,5.3666,5.3686,5.3703,5.3721,5.3703,5.3715,5.3731,5.3756,5.3765,5.3782,5.381,5.3831,5.383,5.385,5.3868,5.386,5.3873,5.3872,5.3874,5.3795,5.3785,5.388,5.388,5.388,5.388,5.388,5.3879,5.3711,5.3748,5.3745,5.3787,5.3791,5.3819,5.3827,5.3838,5.3846,5.3879,5.3897,5.3896,5.3902,5.3922,5.3941,5.394,5.3949,5.3967,5.3963,5.3889,5.3879,5.3869,5.386,5.3968,5.3968,5.404,5.404,5.4041]}]]